SCP
0 0 1 1 1 1 1 1 2 2 2 1 1 1 1 0 0 0 0 0 0 0 0 0 0 0 0 0 0 0 0 0 0 0 0 0 0 0 0 0 0 0 0
0 0 1 1 1 1 1 1 2 2 1 1 1 1 1 0 0 0 0 0 0 0 0 0 0 0 0 0 0 0 0 0 0 0 0 0 0 0 0 0 0 0 0
0 1 1 1 1 1 1 1 1 1 1 1 1 1 0 0 0 0 0 0 0 0 0 0 0 0 0 0 0 0 0 0 0 0 0 0 0 0 0 0 0 0 0
1 1 1 1 1 1 1 1 1 1 1 0 0 0 0 0 0 0 0 0 0 0 0 0 0 0 0 0 0 0 0 0 0 0 0 0 0 0 0 0 0 0 0
1 1 1 1 1 1 1 1 1 1 1 0 0 0 1 1 0 0 0 0 0 0 0 0 0 0 0 0 0 0 0 0 0 0 0 0 0 0 0 0 0 0 0
1 1 1 1 1 1 1 1 1 1 1 0 0 0 0 0 0 0 0 0 0 0 0 0 0 0 0 0 0 0 0 0 0 0 0 0 0 0 0 0 0 0 0
1 1 1 1 1 1 1 1 1 1 1 0 0 0 0 0 0 0 0 0 0 0 0 0 0 0 0 0 0 0 0 0 0 0 0 0 0 0 0 0 0 1 1
1 1 1 1 1 1 1 1 1 1 1 0 0 0 0 0 0 0 0 0 0 0 0 0 0 0 0 0 0 0 0 0 0 0 0 0 0 0 0 0 0 1 1
1 1 1 1 1 1 1 1 1 1 1 1 0 0 0 0 0 0 0 0 0 0 0 0 0 0 0 0 0 0 0 0 0 0 0 0 0 0 0 0 0 0 0
1 1 1 1 1 1 1 1 1 1 1 1 0 0 1 1 1 1 0 0 0 0 0 0 0 0 0 0 0 0 0 0 0 0 0 0 0 0 0 0 0 0 0
1 1 1 1 1 1 1 1 1 1 1 1 1 1 1 1 1 1 0 0 0 0 0 0 0 0 0 0 0 0 0 0 0 0 0 0 0 0 0 0 0 0 0
1 1 1 1 1 1 1 1 1 1 1 1 1 1 1 1 1 1 0 0 0 0 0 0 0 0 0 0 0 0 0 0 0 0 0 0 0 0 0 0 0 0 0
1 1 1 1 1 1 1 1 1 1 1 1 1 1 1 1 1 0 0 0 0 0 0 0 0 0 0 0 0 0 0 0 0 0 0 0 0 0 0 0 0 0 0
1 1 1 1 1 1 1 1 1 2 2 2 1 1 1 1 1 1 0 0 0 0 0 0 0 0 0 0 0 0 0 0 0 0 0 0 0 0 0 0 0 0 0
1 1 1 1 1 1 1 1 1 2 2 2 2 1 1 1 1 1 0 0 0 0 0 0 0 0 0 0 0 0 0 0 0 0 0 0 0 0 0 0 0 0 0
1 1 1 1 1 1 1 1 1 2 2 2 2 1 1 1 1 1 0 0 0 0 0 0 0 0 0 0 0 0 0 0 0 0 0 0 0 0 0 0 0 0 0
2 2 1 1 1 1 1 1 1 1 1 1 1 1 1 1 1 0 0 0 0 0 0 0 0 0 0 0 0 0 0 0 0 0 0 0 0 0 1 1 0 0 0
2 2 2 2 1 1 1 1 1 1 1 1 1 1 0 0 0 0 0 0 0 0 0 0 0 0 0 0 0 0 0 0 0 0 0 0 0 0 0 0 1 0 0
2 2 2 2 1 1 1 1 1 1 1 1 1 0 0 0 0 0 0 0 0 0 0 0 0 0 0 0 0 0 0 0 0 0 0 0 0 0 0 0 0 1 1
3 2 2 2 1 1 1 1 1 1 1 1 1 1 0 0 0 0 0 0 0 0 0 0 0 0 0 0 0 0 0 0 0 0 0 0 0 0 0 0 0 0 1
3 2 2 1 2 2 2 2 1 1 1 1 1 1 1 0 0 0 0 0 0 0 0 0 0 0 0 0 0 0 0 0 0 0 0 0 0 0 0 0 0 0 1
3 2 2 2 2 2 2 2 1 1 1 1 1 1 1 0 0 0 0 0 0 0 0 0 0 0 0 0 0 0 0 0 0 0 0 0 0 0 0 0 0 0 1
2 2 2 2 2 2 2 2 1 1 1 1 1 1 1 0 0 0 0 0 0 0 0 0 0 0 0 0 0 0 0 0 0 0 0 0 0 0 0 0 0 0 1
3 2 2 2 2 2 1 1 1 1 1 1 1 1 1 1 0 0 0 0 0 0 0 0 0 0 0 0 0 0 0 0 0 0 0 0 0 0 0 0 0 1 1
3 3 2 2 1 1 1 1 1 1 1 1 1 1 1 1 1 1 0 0 0 0 0 0 0 0 0 0 0 0 0 0 0 0 0 0 0 0 0 0 0 1 1
3 3 2 1 1 1 1 1 1 1 1 1 1 0 1 1 1 1 1 0 0 0 0 0 0 0 0 0 0 0 0 0 0 0 0 0 0 0 0 0 0 1 1
Wind_Speed
3 4 11 12 13 13 14 14 15 15 15 15 15 15 14 14 14 13 13 13 13 13 14 14 14 14 14 14 14 14 14 13 13 14 14 14 14 14 14 15 14 11 15
6 5 11 12 13 13 13 14 14 14 15 14 14 14 14 13 13 13 13 13 13 13 14 14 14 14 14 14 14 14 13 13 13 14 14 13 14 14 14 14 14 10 15
7 6 9 12 13 13 13 13 13 13 14 13 13 13 13 13 13 13 13 13 13 13 13 13 13 13 13 14 14 14 13 13 13 14 13 8 10 13 13 14 14 14 14
8 5 7 12 12 13 12 13 13 13 13 13 12 12 12 12 12 13 13 13 13 13 13 13 13 13 13 13 14 13 13 14 14 13 8 7 8 13 13 13 13 13 14
7 5 8 13 13 12 12 12 12 12 12 12 11 11 11 12 12 12 12 12 13 13 13 13 13 12 13 13 13 13 13 13 13 11 7 7 6 11 13 13 13 13 13
6 5 7 13 13 12 12 11 11 11 11 11 11 11 11 11 12 12 12 12 12 12 12 12 12 13 12 12 12 13 13 13 11 8 7 6 5 10 12 12 13 13 13
6 5 6 12 12 12 11 11 11 10 10 10 10 10 10 11 11 11 11 11 11 11 11 12 11 11 11 11 12 12 12 12 8 7 6 5 6 10 11 12 13 13 13
7 5 6 12 12 11 11 11 10 10 10 10 10 10 10 10 10 10 10 10 10 10 10 10 10 10 10 10 11 12 12 11 8 7 6 5 7 10 11 12 12 12 12
5 5 4 5 7 10 10 10 10 9 9 9 9 9 9 9 9 9 9 10 10 10 9 10 10 10 10 10 11 11 11 11 6 5 6 4 7 10 11 11 11 11 11
5 4 4 4 4 4 5 9 9 9 9 9 9 9 9 9 8 9 8 9 10 9 9 9 10 9 9 10 10 10 10 9 5 4 3 4 8 9 10 10 10 10 10
5 3 4 4 3 3 3 6 7 8 8 7 6 8 7 4 4 4 6 8 8 8 8 8 9 9 9 8 8 9 8 3 4 3 2 5 8 9 9 9 9 10 10
7 5 4 4 4 3 3 3 2 2 3 4 3 4 3 3 2 3 4 6 7 7 7 7 7 8 6 3 5 6 3 4 3 3 3 6 7 8 9 9 9 9 9
7 6 5 4 4 3 2 3 2 2 2 3 4 4 3 3 2 3 2 2 3 4 3 4 5 3 3 3 3 3 3 3 2 2 3 6 6 8 8 8 8 8 8
6 6 6 5 4 3 2 2 2 2 2 2 2 3 2 2 2 2 1 1 2 1 2 2 2 2 3 3 3 3 3 2 2 2 2 6 6 7 8 8 8 8 8
7 7 6 6 5 4 3 2 3 2 2 2 1 2 2 2 2 1 1 1 1 1 1 1 2 2 2 2 2 3 3 3 3 2 2 6 6 6 7 8 8 8 8
7 6 5 5 5 4 3 3 2 2 2 2 2 2 3 2 2 2 1 1 1 1 1 1 1 1 1 1 1 2 3 3 3 3 2 3 6 7 7 7 8 8 8
7 6 6 6 5 5 4 4 3 3 3 2 2 3 3 3 3 2 2 1 1 1 1 1 1 1 1 1 1 2 2 2 3 3 3 2 3 6 7 7 8 8 9
6 6 7 7 6 6 5 4 3 3 3 3 2 2 4 4 4 3 2 2 1 2 2 2 1 1 1 1 1 1 1 2 3 3 3 3 2 3 5 8 8 8 9
7 7 6 5 6 6 5 4 3 2 3 3 2 2 3 4 4 3 3 2 2 2 2 2 1 1 1 1 1 1 1 2 2 3 4 5 4 4 3 5 8 8 10
5 5 5 5 5 5 4 3 2 1 2 2 2 3 4 4 4 4 3 3 3 2 2 2 2 1 1 1 1 0 1 2 2 3 4 4 4 5 5 5 4 5 9
4 5 5 5 4 3 3 3 3 2 2 2 3 4 4 4 4 4 3 3 3 3 3 3 2 2 1 1 1 1 2 1 2 3 3 4 5 5 5 5 4 4 3
5 5 4 5 5 4 3 2 2 2 2 2 2 2 3 4 4 4 4 3 3 3 3 3 3 2 1 2 2 1 1 2 2 2 2 4 4 3 5 5 5 5 4
5 5 5 5 5 5 4 3 2 2 1 1 1 1 3 4 5 4 4 4 4 4 4 4 4 4 3 2 2 3 2 3 2 2 1 2 2 2 3 4 5 5 5
5 4 4 5 5 4 5 4 4 3 2 3 2 2 2 3 4 4 5 5 5 4 4 5 5 4 4 3 2 2 2 3 2 1 2 1 1 2 3 3 3 4 4
4 4 4 4 4 4 4 5 4 3 2 2 1 2 2 2 3 4 5 4 4 4 5 5 4 5 4 4 3 3 2 1 2 2 2 1 1 1 1 2 2 2 2
4 4 4 4 4 4 4 4 4 4 3 3 2 2 2 1 2 3 3 4 4 4 5 5 5 5 4 4 3 3 3 3 3 3 3 3 2 1 1 1 1 1 1
Wind_Direction
139 140 129 121 115 111 107 104 104 104 104 104 105 106 107 107 108 107 106 105 104 103 103 102 103 103 103 103 104 105 106 109 112 113 113 111 111 113 113 113 111 111 113
138 139 131 124 119 114 109 106 104 104 105 105 106 107 107 107 107 106 106 106 106 106 105 103 103 103 102 103 104 105 106 108 110 111 112 112 111 112 112 113 113 116 115
129 131 131 127 122 117 112 109 107 106 106 107 107 107 108 108 107 107 107 107 107 105 104 103 104 104 105 106 104 104 105 104 106 105 102 99 108 112 114 114 115 116 116
129 125 131 130 126 121 117 114 112 111 110 110 110 109 109 109 109 108 107 106 106 104 104 104 103 104 106 105 105 104 102 101 103 100 91 95 104 109 111 115 117 118 118
123 125 140 133 129 125 121 118 115 114 114 113 112 112 110 109 108 107 107 107 106 106 106 105 103 104 107 108 107 105 102 101 101 94 88 88 96 113 114 117 120 121 120
123 128 142 135 132 129 126 122 119 118 117 116 115 114 112 110 110 109 108 107 106 107 106 105 105 104 104 107 109 109 108 105 97 93 91 95 101 113 117 120 120 121 120
130 131 141 138 137 135 132 129 126 124 121 118 116 115 114 113 113 111 110 110 107 106 106 106 106 105 104 106 107 109 110 111 104 100 98 100 106 111 115 119 120 120 117
135 132 138 143 141 139 136 133 131 128 125 122 118 117 117 116 114 114 114 113 111 109 108 109 107 105 105 109 114 113 114 116 113 109 105 106 112 112 114 118 121 122 121
125 122 122 131 141 143 141 139 137 133 131 128 124 122 120 118 116 115 115 114 112 110 109 108 107 105 104 111 117 118 119 119 112 114 118 114 120 122 121 121 121 122 123
114 115 115 111 113 123 138 144 143 141 137 133 132 129 125 122 118 115 111 115 113 111 108 108 108 104 105 111 119 121 120 116 113 111 114 128 129 130 130 130 130 130 129
143 131 127 121 117 119 134 151 146 145 140 132 131 127 107 79 84 100 117 118 116 112 109 107 106 104 102 105 118 121 115 110 114 116 124 141 143 141 139 138 138 136 135
170 167 151 144 142 140 150 118 98 96 99 94 89 96 89 84 82 94 106 114 111 106 103 99 98 93 88 82 98 106 108 118 117 128 146 152 152 149 147 145 145 143 142
173 173 166 164 159 151 129 123 103 91 90 93 99 103 100 87 71 68 58 66 68 78 67 73 76 77 86 93 97 111 126 125 130 143 156 159 160 158 155 154 154 155 155
173 182 172 169 165 161 142 133 126 120 113 112 116 123 115 106 98 93 83 72 62 64 76 74 82 83 87 105 122 132 140 138 141 142 167 169 169 168 166 164 165 166 164
183 185 178 173 172 163 148 150 148 145 140 139 145 153 149 144 147 136 126 115 104 94 93 91 89 85 90 98 130 145 156 156 155 158 174 182 180 179 178 177 176 175 174
188 186 177 178 175 167 164 161 162 159 157 158 176 181 172 164 166 166 173 177 171 151 126 121 121 108 97 105 130 147 160 165 169 170 184 197 194 192 193 191 188 187 186
184 180 177 185 179 179 176 178 173 169 164 174 185 188 185 178 177 175 187 205 207 166 146 123 107 104 116 117 126 154 165 178 183 190 194 201 208 208 206 205 202 200 200
174 177 184 190 179 182 183 179 170 170 171 184 186 188 195 189 182 180 197 216 198 155 149 149 139 120 112 126 149 193 185 193 203 204 201 203 209 217 220 218 215 214 213
175 176 180 182 174 181 179 166 167 166 178 182 181 191 197 196 189 183 199 208 179 160 164 176 152 150 159 174 194 206 206 213 221 217 213 213 213 218 223 230 228 225 226
166 171 175 174 172 166 155 142 138 164 178 174 187 197 195 197 189 181 192 197 175 164 172 172 158 147 156 173 197 273 256 236 227 227 227 222 221 224 224 229 232 237 237
149 157 165 165 161 152 153 162 163 187 184 186 203 200 194 194 187 181 190 183 177 182 191 180 159 156 164 134 96 360 332 268 237 233 227 225 229 229 224 224 226 230 241
159 160 164 168 164 168 175 166 160 161 180 187 195 194 191 186 186 193 191 190 187 182 187 183 167 155 175 161 149 125 336 331 312 251 231 228 233 226 227 226 223 225 229
169 173 178 176 172 173 162 136 118 103 86 108 185 207 206 194 195 197 193 192 192 188 198 199 184 177 184 192 181 160 170 232 300 324 271 240 230 225 237 232 224 226 227
185 175 174 176 175 175 164 163 163 171 184 197 202 213 212 201 197 199 200 198 199 198 203 208 197 189 175 191 198 205 193 171 179 292 320 301 248 238 244 241 232 226 225
173 170 172 169 175 175 170 171 169 177 193 189 191 200 214 207 203 204 201 198 204 206 209 209 199 195 189 189 189 181 185 190 191 197 256 291 313 268 246 236 231 227 221
162 168 166 168 179 176 174 173 175 184 192 181 188 200 214 216 215 215 205 202 208 211 213 210 205 201 200 198 197 189 179 182 192 192 221 244 261 279 270 250 244 236 231